Location: Azul
(36.7830°S, 59.8500°W)
Time: 21:16:30
(UTC-03:00)

RS-44 - Pass Details

Date: 22 September 2024
Orbit: 1174 x 1511 km, 82.5° (Epoch: 11 October)

Event Time Altitude Azimuth Distance (km) Brightness Sun altitude
Rises 03:35:46 0° 193° (SSW) 4,465 ? -37.3°
Reaches altitude 10° 03:38:36 10° 196° (SSW) 3,527 ? -36.8°
Enters shadow 03:43:24 37° 214° (SW) 2,139 ? -36.0°
